• In Deutschland
  • Länderverzeichnis
  • Für 7 Tage
  • Wassertemperatur
  • Satellitenkarten
  • Wetterkarte
  • Widgets
  • user-avatar
    Anmelden

    Stündliche Wetter Brazzaville

    Heute, 18 August, Freitag

    Zeit Temperatur Niederschläge Wind Luftdruck Luftfeuchtigkeit
    00:00 +26°C° 0 mm 2 m/S 734 mmHg 58%
    01:00 +24°C° 0 mm 1 m/S 734 mmHg 67%
    02:00 +24°C° 0 mm 1 m/S 734 mmHg 69%
    03:00 +23°C° 0 mm 1 m/S 734 mmHg 72%
    04:00 +23°C° 0 mm 2 m/S 734 mmHg 75%
    05:00 +23°C° 0 mm 2 m/S 734 mmHg 75%
    06:00 +23°C° 0 mm 2 m/S 734 mmHg 75%
    07:00 +24°C° 0 mm 2 m/S 735 mmHg 75%
    08:00 +26°C° 0 mm 2 m/S 735 mmHg 65%
    09:00 +28°C° 0 mm 2 m/S 735 mmHg 55%
    10:00 +31°C° 0 mm 2 m/S 735 mmHg 45%
    11:00 +34°C° 0 mm 2 m/S 734 mmHg 39%
    12:00 +36°C° 0 mm 2 m/S 733 mmHg 33%
    13:00 +39°C° 0 mm 2 m/S 733 mmHg 27%
    14:00 +39°C° 0 mm 1 m/S 732 mmHg 26%
    15:00 +39°C° 0 mm 1 m/S 731 mmHg 24%
    16:00 +39°C° 0 mm 1 m/S 731 mmHg 23%
    17:00 +36°C° 0 mm 1 m/S 731 mmHg 26%
    18:00 +34°C° 0 mm 1 m/S 731 mmHg 29%
    19:00 +32°C° 0 mm 1 m/S 731 mmHg 32%
    20:00 +32°C° 0 mm 1 m/S 732 mmHg 33%
    21:00 +31°C° 0 mm 1 m/S 732 mmHg 35%
    22:00 +30°C° 0 mm 1 m/S 733 mmHg 36%
    23:00 +30°C° 0 mm 1 m/S 733 mmHg 37%

    Morgen, 19 August, Samstag

    Zeit Temperatur Niederschläge Wind Luftdruck Luftfeuchtigkeit
    00:00 +29°C° 0 mm 2 m/S 733 mmHg 39%
    01:00 +29°C° 0 mm 2 m/S 733 mmHg 40%
    02:00 +28°C° 0 mm 2 m/S 733 mmHg 45%
    03:00 +27°C° 0 mm 2 m/S 733 mmHg 50%
    04:00 +26°C° 0 mm 2 m/S 732 mmHg 55%
    05:00 +26°C° 0 mm 2 m/S 733 mmHg 57%
    06:00 +26°C° 0 mm 2 m/S 734 mmHg 59%
    07:00 +26°C° 0 mm 2 m/S 734 mmHg 62%
    08:00 +28°C° 0 mm 2 m/S 735 mmHg 55%
    09:00 +30°C° 0 mm 2 m/S 735 mmHg 49%
    10:00 +32°C° 0 mm 2 m/S 735 mmHg 42%
    11:00 +35°C° 0 mm 2 m/S 735 mmHg 37%
    12:00 +37°C° 0 mm 2 m/S 734 mmHg 33%
    13:00 +39°C° 0 mm 2 m/S 733 mmHg 28%
    14:00 +39°C° 0 mm 1 m/S 732 mmHg 28%
    15:00 +39°C° 0 mm 1 m/S 732 mmHg 27%
    16:00 +39°C° 0 mm 1 m/S 731 mmHg 27%
    17:00 +36°C° 0 mm 1 m/S 731 mmHg 30%
    18:00 +35°C° 0 mm 1 m/S 732 mmHg 33%
    19:00 +34°C° 0 mm 1 m/S 732 mmHg 35%
    20:00 +33°C° 0 mm 1 m/S 733 mmHg 37%
    21:00 +32°C° 0 mm 2 m/S 733 mmHg 39%
    22:00 +31°C° 0 mm 2 m/S 734 mmHg 41%
    23:00 +31°C° 0 mm 2 m/S 734 mmHg 44%

    übermorgen, 20 August, Sonntag

    Zeit Temperatur Niederschläge Wind Luftdruck Luftfeuchtigkeit
    00:00 +30°C° 0 mm 3 m/S 734 mmHg 47%
    01:00 +29°C° 0 mm 3 m/S 734 mmHg 50%
    02:00 +28°C° 0 mm 3 m/S 734 mmHg 54%
    03:00 +27°C° 0 mm 3 m/S 734 mmHg 59%
    04:00 +26°C° 0 mm 2 m/S 734 mmHg 63%
    05:00 +26°C° 0 mm 2 m/S 734 mmHg 64%
    06:00 +26°C° 0 mm 2 m/S 735 mmHg 65%
    07:00 +26°C° 0 mm 2 m/S 735 mmHg 66%
    08:00 +28°C° 0 mm 2 m/S 736 mmHg 59%
    09:00 +30°C° 0 mm 2 m/S 737 mmHg 53%
    10:00 +32°C° 0 mm 2 m/S 738 mmHg 46%
    11:00 +32°C° 0 mm 2 m/S 737 mmHg 44%
    12:00 +34°C° 0 mm 2 m/S 736 mmHg 43%
    13:00 +34°C° 0 mm 2 m/S 735 mmHg 41%
    14:00 +35°C° 0 mm 2 m/S 734 mmHg 39%
    15:00 +35°C° 0 mm 3 m/S 733 mmHg 38%
    16:00 +36°C° 0 mm 3 m/S 732 mmHg 36%
    17:00 +35°C° 0 mm 3 m/S 733 mmHg 39%
    18:00 +32°C° 0 mm 2 m/S 733 mmHg 42%
    19:00 +31°C° 0 mm 2 m/S 734 mmHg 45%
    20:00 +31°C° 0 mm 2 m/S 734 mmHg 47%
    21:00 +30°C° 0 mm 3 m/S 734 mmHg 49%
    22:00 +30°C° 0 mm 3 m/S 735 mmHg 51%
    23:00 +29°C° 0 mm 3 m/S 735 mmHg 53%

    21 August, Montag

    Zeit Temperatur Niederschläge Wind Luftdruck Luftfeuchtigkeit
    00:00 +28°C° 0 mm 3 m/S 735 mmHg 56%
    01:00 +28°C° 0 mm 3 m/S 735 mmHg 58%
    02:00 +27°C° 0 mm 3 m/S 735 mmHg 60%
    03:00 +27°C° 0 mm 3 m/S 735 mmHg 62%
    04:00 +26°C° 0 mm 3 m/S 735 mmHg 65%
    05:00 +26°C° 0 mm 3 m/S 735 mmHg 65%
    06:00 +26°C° 0 mm 3 m/S 735 mmHg 66%
    07:00 +25°C° 0 mm 3 m/S 736 mmHg 67%
    08:00 +27°C° 0 mm 4 m/S 736 mmHg 60%
    09:00 +29°C° 0 mm 4 m/S 736 mmHg 53%
    10:00 +32°C° 0 mm 4 m/S 736 mmHg 46%
    11:00 +33°C° 0 mm 4 m/S 735 mmHg 42%
    12:00 +35°C° 0 mm 4 m/S 734 mmHg 37%
    13:00 +36°C° 0 mm 4 m/S 733 mmHg 32%
    14:00 +36°C° 0 mm 4 m/S 733 mmHg 31%
    15:00 +36°C° 0 mm 4 m/S 732 mmHg 30%
    16:00 +36°C° 0 mm 4 m/S 732 mmHg 30%
    17:00 +35°C° 0 mm 3 m/S 732 mmHg 32%
    18:00 +34°C° 0 mm 3 m/S 733 mmHg 34%
    19:00 +31°C° 0 mm 2 m/S 733 mmHg 36%
    20:00 +31°C° 0 mm 2 m/S 734 mmHg 37%
    21:00 +30°C° 0 mm 3 m/S 734 mmHg 39%
    22:00 +29°C° 0 mm 3 m/S 735 mmHg 41%
    23:00 +29°C° 0 mm 3 m/S 735 mmHg 44%

    22 August, Dienstag

    Zeit Temperatur Niederschläge Wind Luftdruck Luftfeuchtigkeit
    00:00 +28°C° 0 mm 3 m/S 735 mmHg 48%
    01:00 +27°C° 0 mm 4 m/S 734 mmHg 51%
    02:00 +26°C° 0 mm 3 m/S 734 mmHg 54%
    03:00 +26°C° 0 mm 3 m/S 734 mmHg 56%
    04:00 +25°C° 0 mm 3 m/S 734 mmHg 59%
    05:00 +25°C° 0 mm 3 m/S 734 mmHg 60%
    06:00 +24°C° 0 mm 3 m/S 735 mmHg 61%
    07:00 +24°C° 0 mm 3 m/S 735 mmHg 61%
    08:00 +26°C° 0 mm 3 m/S 735 mmHg 55%
    09:00 +28°C° 0 mm 3 m/S 736 mmHg 49%
    10:00 +29°C° 0 mm 3 m/S 736 mmHg 43%
    11:00 +31°C° 0 mm 3 m/S 735 mmHg 38%
    12:00 +34°C° 0 mm 3 m/S 734 mmHg 33%
    13:00 +36°C° 0 mm 3 m/S 733 mmHg 28%
    14:00 +36°C° 0 mm 3 m/S 733 mmHg 28%
    15:00 +36°C° 0 mm 3 m/S 732 mmHg 28%
    16:00 +37°C° 0 mm 3 m/S 731 mmHg 27%
    17:00 +35°C° 0 mm 2 m/S 732 mmHg 30%
    18:00 +34°C° 0 mm 2 m/S 732 mmHg 33%
    19:00 +31°C° 0 mm 2 m/S 732 mmHg 35%
    20:00 +31°C° 0 mm 2 m/S 733 mmHg 36%
    21:00 +30°C° 0 mm 2 m/S 733 mmHg 37%
    22:00 +29°C° 0 mm 2 m/S 733 mmHg 38%
    23:00 +29°C° 0 mm 2 m/S 733 mmHg 40%

    23 August, Mittwoch

    Zeit Temperatur Niederschläge Wind Luftdruck Luftfeuchtigkeit
    00:00 +28°C° 0 mm 2 m/S 733 mmHg 41%
    01:00 +28°C° 0 mm 2 m/S 733 mmHg 43%
    02:00 +27°C° 0 mm 2 m/S 733 mmHg 46%
    03:00 +27°C° 0 mm 2 m/S 733 mmHg 48%
    04:00 +26°C° 0 mm 2 m/S 733 mmHg 51%
    05:00 +26°C° 0 mm 2 m/S 733 mmHg 53%
    06:00 +26°C° 0 mm 2 m/S 734 mmHg 54%
    07:00 +26°C° 0 mm 3 m/S 734 mmHg 56%
    08:00 +27°C° 0 mm 3 m/S 734 mmHg 52%
    09:00 +29°C° 0 mm 3 m/S 734 mmHg 49%
    10:00 +30°C° 0 mm 2 m/S 735 mmHg 45%
    11:00 +32°C° 0 mm 2 m/S 734 mmHg 41%
    12:00 +35°C° 0 mm 2 m/S 733 mmHg 38%
    13:00 +36°C° 0 mm 2 m/S 732 mmHg 34%
    14:00 +36°C° 0 mm 2 m/S 732 mmHg 33%
    15:00 +36°C° 0 mm 2 m/S 731 mmHg 33%
    16:00 +36°C° 0 mm 2 m/S 730 mmHg 33%
    17:00 +35°C° 0 mm 2 m/S 731 mmHg 35%
    18:00 +34°C° 0 mm 2 m/S 731 mmHg 37%
    19:00 +32°C° 0 mm 1 m/S 731 mmHg 39%
    20:00 +31°C° 0 mm 2 m/S 732 mmHg 41%
    21:00 +30°C° 0 mm 2 m/S 732 mmHg 43%
    22:00 +29°C° 0 mm 2 m/S 732 mmHg 45%
    23:00 +29°C° 0 mm 2 m/S 732 mmHg 47%
    Mehr zeigen